This is the latest recevied weather packets stored in our database for station/object DO2HBA-6. If no packets are shown the sender has not sent any weather packets the latest 10 day(s).
| Time | Temp. | Humidity | Pressure | Rain* | Wind** | Luminosity | Snow |
|---|---|---|---|---|---|---|---|
| 1777557154 | 13.89° C | 26% | 1026.9 hPa | 0 mm | - | - | - |
| 1777556854 | 13.89° C | 26% | 1027 hPa | 0 mm | - | - | - |
| 1777556554 | 13.33° C | 26% | 1027.1 hPa | 0 mm | - | - | - |
| 1777556253 | 13.33° C | 26% | 1026.9 hPa | 0 mm | - | - | - |
| 1777555953 | 13.89° C | 25% | 1026.8 hPa | 0 mm | - | - | - |
| 1777555653 | 15° C | 25% | 1026.8 hPa | 0 mm | - | - | - |
| 1777555352 | 15° C | 25% | 1026.8 hPa | 0 mm | - | - | - |
| 1777555052 | 15° C | 25% | 1026.9 hPa | 0 mm | - | - | - |
| 1777554752 | 15° C | 25% | 1027 hPa | 0 mm | - | - | - |
| 1777554451 | 15° C | 26% | 1027.1 hPa | 0 mm | - | - | - |
| 1777554151 | 14.44° C | 26% | 1027.2 hPa | 0 mm | - | - | - |
| 1777553851 | 14.44° C | 26% | 1027.2 hPa | 0 mm | - | - | - |
| 1777553551 | 14.44° C | 26% | 1027.5 hPa | 0 mm | - | - | - |
| 1777553250 | 13.89° C | 26% | 1027.5 hPa | 0 mm | - | - | - |
| 1777552950 | 13.89° C | 26% | 1027.4 hPa | 0 mm | - | - | - |
| 1777552650 | 13.89° C | 26% | 1027.5 hPa | 0 mm | - | - | - |
| 1777552349 | 13.89° C | 26% | 1027.4 hPa | 0 mm | - | - | - |
| 1777552049 | 13.89° C | 27% | 1027.5 hPa | 0 mm | - | - | - |
| 1777551749 | 13.89° C | 26% | 1027.5 hPa | 0 mm | - | - | - |
| 1777551448 | 13.89° C | 26% | 1027.8 hPa | 0 mm | - | - | - |
| 1777551148 | 13.89° C | 26% | 1027.8 hPa | 0 mm | - | - | - |
| 1777550848 | 13.89° C | 26% | 1027.8 hPa | 0 mm | - | - | - |
| 1777550548 | 14.44° C | 26% | 1027.7 hPa | 0 mm | - | - | - |
| 1777550247 | 14.44° C | 28% | 1027.7 hPa | 0 mm | - | - | - |
| 1777549947 | 13.89° C | 28% | 1027.6 hPa | 0 mm | - | - | - |
* Rain latest hour (hover to see other rain measurements)
** Current wind speed in m/s (hover to see current wind gust speed)